Weather in Minneapolis

United States     44°58′13″N   93°16′04″W
temp.,
°C
wind,
m/s
gust,
m/s
humid.,
%
clouds,
%
prec.,
mm/h
press.,
hPa
HPBL,
m
23 may, mon
mon2301:00+8sse25584 0.0 1029152
04:00+7s26614 0.0 1029173
07:00+8s23580 0.0 1029162
10:00+14s223796 0.0 10281167
13:00+17sse322924 0.0 10252147
16:00+16sse3335100 0.0 10241965
19:00+15sse4442100 0.0 10241387
22:00+13sse3755100 0.0 1024467
24 may, tue
tue2401:00+11sse2659100 0.0 1024243
04:00+10se256196 0.0 1024200
07:00+10se256426 0.0 1024221
10:00+15se34455 0.0 10241005
13:00+19se4536100 0.0 10231828
16:00+19ese4434100 0.0 10211925
19:00+17ese4544100 0.0 10211545
22:00+14ese3762100 0.0 1022611
25 may, wed
wed2501:00+13ese2759100 0.0 1021364
04:00+12ese3975100 0.1 1020515
07:00+10e31092100 1.3 1019629
10:00+9ne41292100 2.1 1017549
13:00+9ene51090100 3.1 1016848
16:00+8nne51094100 2.1 1014697
19:00+9ne5993100 2.5 1013716
22:00+9nne2692100 0.0 1013453
26 may, thu
thu2601:00+8nnw2494100 0.0 1014317
04:00+7nnw2492100 0.0 1014264
07:00+7nnw2391100 0.0 1016310
10:00+9n3479100 0.0 1016534
13:00+15e1154100 0.0 1016890
16:00+18nne2246100 0.0 10141081
19:00+17nne2252100 0.0 10141005
22:00+14ese2369100 0.0 101577
27 may, fri
fri2701:00+13e1174100 0.0 101414
04:00+11se11825 0.0 101515
07:00+12ese01765 0.0 101676
10:00+18ene11526 0.0 1015636
13:00+23ne12405 0.0 10141517
16:00+24ne33385 0.0 10122120
19:00+22e43471 0.0 10121046
22:00+18sse24635 0.0 1012105